TimeCST,TemperatureF,Dew PointF,Humidity,Sea Level PressureIn,VisibilityMPH,Wind Direction,Wind SpeedMPH,Gust SpeedMPH,PrecipitationIn,Events,Conditions,WindDirDegrees,DateUTC
12:15 AM,30.2,23.7,77,29.90,10.0,West,6.9,-,N/A,,Clear,260,2013-02-13 06:15:00
12:35 AM,30.2,23.7,77,29.90,10.0,West,6.9,-,N/A,,Clear,260,2013-02-13 06:35:00
12:55 AM,30.0,23.7,77,29.90,10.0,WSW,4.6,-,N/A,,Clear,250,2013-02-13 06:55:00
1:15 AM,29.3,23.2,78,29.90,10.0,WSW,3.5,-,N/A,,Clear,250,2013-02-13 07:15:00
1:35 AM,29.3,23.4,78,29.90,10.0,Calm,Calm,-,N/A,,Clear,0,2013-02-13 07:35:00
1:55 AM,28.9,23.0,78,29.90,10.0,West,3.5,-,N/A,,Clear,260,2013-02-13 07:55:00
2:15 AM,28.6,23.0,80,29.90,10.0,Calm,Calm,-,N/A,,Clear,0,2013-02-13 08:15:00
2:35 AM,28.6,23.4,81,29.89,10.0,WSW,4.6,-,N/A,,Clear,250,2013-02-13 08:35:00
2:55 AM,28.4,23.4,81,29.89,10.0,West,4.6,-,N/A,,Clear,260,2013-02-13 08:55:00
3:15 AM,29.1,23.5,80,29.88,10.0,WSW,6.9,-,N/A,,Clear,250,2013-02-13 09:15:00
3:35 AM,28.8,23.5,81,29.88,10.0,West,5.8,-,N/A,,Clear,260,2013-02-13 09:35:00
3:55 AM,28.2,23.2,81,29.87,10.0,WSW,3.5,-,N/A,,Clear,240,2013-02-13 09:55:00
4:15 AM,28.9,23.7,81,29.87,10.0,West,6.9,-,N/A,,Clear,260,2013-02-13 10:15:00
4:35 AM,28.2,23.4,82,29.86,10.0,WSW,4.6,-,N/A,,Clear,250,2013-02-13 10:35:00
4:55 AM,28.2,23.5,83,29.85,10.0,West,5.8,-,N/A,,Clear,260,2013-02-13 10:55:00
5:15 AM,28.0,23.4,83,29.85,10.0,West,4.6,-,N/A,,Clear,260,2013-02-13 11:15:00
5:35 AM,28.0,23.5,83,29.85,10.0,West,5.8,-,N/A,,Clear,260,2013-02-13 11:35:00
5:55 AM,27.5,23.7,86,29.85,10.0,West,8.1,-,N/A,,Clear,260,2013-02-13 11:55:00
6:15 AM,28.4,23.9,83,29.85,10.0,West,4.6,-,N/A,,Clear,260,2013-02-13 12:15:00
6:35 AM,28.0,23.7,84,29.85,10.0,West,5.8,-,N/A,,Clear,260,2013-02-13 12:35:00
6:55 AM,28.8,23.9,82,29.85,10.0,West,5.8,-,N/A,,Clear,260,2013-02-13 12:55:00
7:15 AM,28.0,23.7,84,29.85,10.0,West,4.6,-,N/A,,Clear,270,2013-02-13 13:15:00
7:35 AM,28.8,24.3,83,29.85,10.0,West,4.6,-,N/A,,Clear,260,2013-02-13 13:35:00
7:55 AM,29.7,25.2,83,29.85,10.0,WSW,3.5,-,N/A,,Clear,240,2013-02-13 13:55:00
8:15 AM,30.2,25.3,82,29.85,10.0,Calm,Calm,-,N/A,,Clear,0,2013-02-13 14:15:00
8:35 AM,31.1,25.5,80,29.86,10.0,West,3.5,-,N/A,,Clear,260,2013-02-13 14:35:00
8:55 AM,31.1,25.7,80,29.86,10.0,WSW,4.6,-,N/A,,Clear,250,2013-02-13 14:55:00
9:15 AM,32.0,26.4,80,29.86,10.0,Calm,Calm,-,N/A,,Clear,0,2013-02-13 15:15:00
9:35 AM,34.3,27.9,77,29.85,10.0,West,9.2,-,N/A,,Clear,260,2013-02-13 15:35:00
9:55 AM,36.0,28.6,75,29.84,10.0,WSW,6.9,-,N/A,,Clear,240,2013-02-13 15:55:00
10:15 AM,38.3,28.9,69,29.84,10.0,Calm,Calm,-,N/A,,Clear,0,2013-02-13 16:15:00
10:35 AM,39.9,29.8,67,29.83,10.0,SW,4.6,-,N/A,,Clear,220,2013-02-13 16:35:00
10:55 AM,42.1,30.0,62,29.83,10.0,WSW,5.8,-,N/A,,Clear,240,2013-02-13 16:55:00
11:15 AM,45.1,30.7,57,29.83,10.0,WSW,8.1,-,N/A,,Clear,240,2013-02-13 17:15:00
11:35 AM,47.3,30.0,51,29.83,10.0,WSW,10.4,-,N/A,,Clear,250,2013-02-13 17:35:00
11:55 AM,48.4,30.0,49,29.81,10.0,SW,10.4,-,0.01,,Clear,230,2013-02-13 17:55:00
12:15 PM,49.5,29.5,46,29.80,10.0,SW,12.7,16.1,N/A,,Clear,230,2013-02-13 18:15:00
12:35 PM,50.5,29.1,44,29.80,10.0,WSW,12.7,-,N/A,,Clear,240,2013-02-13 18:35:00
12:55 PM,51.3,28.9,42,29.79,10.0,SW,11.5,-,N/A,,Clear,220,2013-02-13 18:55:00
1:15 PM,52.2,28.9,41,29.78,10.0,WSW,11.5,16.1,N/A,,Clear,250,2013-02-13 19:15:00
1:35 PM,52.5,28.2,39,29.77,10.0,WSW,10.4,-,N/A,,Clear,250,2013-02-13 19:35:00
1:55 PM,53.2,28.0,38,29.77,10.0,WSW,15.0,19.6,N/A,,Clear,250,2013-02-13 19:55:00
2:15 PM,53.2,27.1,37,29.76,10.0,WSW,13.8,18.4,N/A,,Clear,240,2013-02-13 20:15:00
2:35 PM,53.6,27.5,37,29.75,10.0,WSW,13.8,20.7,N/A,,Clear,250,2013-02-13 20:35:00
2:55 PM,53.6,27.1,36,29.73,10.0,WSW,11.5,18.4,N/A,,Clear,250,2013-02-13 20:55:00
3:15 PM,54.3,27.3,35,29.73,10.0,WSW,10.4,20.7,N/A,,Clear,240,2013-02-13 21:15:00
3:35 PM,54.1,26.6,35,29.73,10.0,WSW,16.1,-,N/A,,Clear,240,2013-02-13 21:35:00
3:55 PM,52.9,25.9,35,29.73,10.0,WSW,12.7,20.7,N/A,,Clear,240,2013-02-13 21:55:00
4:15 PM,52.3,26.4,37,29.73,10.0,WSW,13.8,19.6,N/A,,Clear,240,2013-02-13 22:15:00
4:35 PM,52.3,25.9,36,29.72,10.0,WSW,9.2,19.6,N/A,,Scattered Clouds,250,2013-02-13 22:35:00
4:55 PM,53.1,26.2,35,29.72,10.0,WSW,11.5,18.4,N/A,,Scattered Clouds,250,2013-02-13 22:55:00
5:15 PM,50.5,26.8,40,29.73,10.0,SW,9.2,-,N/A,,Scattered Clouds,230,2013-02-13 23:15:00
5:35 PM,49.6,28.0,43,29.72,10.0,SW,9.2,-,N/A,,Overcast,230,2013-02-13 23:35:00
5:55 PM,48.9,28.4,45,29.72,10.0,SW,8.1,-,N/A,,Overcast,230,2013-02-13 23:55:00
6:15 PM,47.3,29.1,49,29.73,10.0,WSW,6.9,-,N/A,,Overcast,250,2013-02-14 00:15:00
6:35 PM,44.4,29.3,55,29.73,10.0,West,9.2,-,N/A,,Scattered Clouds,260,2013-02-14 00:35:00
6:55 PM,43.9,28.6,55,29.73,10.0,West,9.2,-,N/A,,Clear,270,2013-02-14 00:55:00
7:15 PM,43.2,28.4,56,29.74,10.0,West,10.4,-,N/A,,Clear,260,2013-02-14 01:15:00
7:35 PM,40.5,27.9,61,29.74,10.0,West,9.2,-,N/A,,Clear,260,2013-02-14 01:35:00
7:55 PM,41.0,28.4,61,29.74,10.0,West,10.4,-,N/A,,Mostly Cloudy,260,2013-02-14 01:55:00
8:15 PM,40.8,28.2,61,29.74,10.0,WSW,9.2,-,N/A,,Mostly Cloudy,250,2013-02-14 02:15:00
8:35 PM,41.0,28.8,62,29.74,10.0,West,12.7,-,N/A,,Mostly Cloudy,260,2013-02-14 02:35:00
8:55 PM,40.3,29.1,64,29.74,10.0,West,13.8,-,N/A,,Scattered Clouds,260,2013-02-14 02:55:00
9:15 PM,41.9,29.7,62,29.75,10.0,West,15.0,-,N/A,,Mostly Cloudy,270,2013-02-14 03:15:00
9:35 PM,41.5,29.7,63,29.76,10.0,West,12.7,-,N/A,,Mostly Cloudy,270,2013-02-14 03:35:00
9:55 PM,42.1,30.0,62,29.76,10.0,West,11.5,-,N/A,,Mostly Cloudy,270,2013-02-14 03:55:00
10:15 PM,41.4,29.8,64,29.77,10.0,West,11.5,-,N/A,,Scattered Clouds,270,2013-02-14 04:15:00
10:35 PM,42.8,30.2,61,29.77,10.0,West,11.5,-,N/A,,Mostly Cloudy,280,2013-02-14 04:35:00
10:55 PM,41.9,30.0,63,29.77,10.0,West,10.4,-,N/A,,Overcast,280,2013-02-14 04:55:00
11:15 PM,41.0,30.2,65,29.78,10.0,WNW,10.4,-,N/A,,Scattered Clouds,300,2013-02-14 05:15:00
11:35 PM,41.4,30.2,65,29.78,10.0,WNW,12.7,-,N/A,,Scattered Clouds,300,2013-02-14 05:35:00
11:55 PM,41.4,30.2,65,29.79,10.0,WNW,16.1,19.6,N/A,,Clear,290,2013-02-14 05:55:00